Temperature
16 18 19 19 19 19 19 19 19 19 17 17 18 18 18 16 16 16 15 15 14 13 13 15 15 16 16 16 16 15 15 14 14 13 12 12 12 11 11 11 10 10 10 9
18 18 19 18 17 17 17 18 19 19 16 17 17 17 17 16 16 15 15 14 13 13 13 14 15 15 15 15 15 14 14 14 13 13 12 12 12 11 11 11 11 10 10 10
18 18 16 16 16 17 17 18 19 18 17 16 16 18 17 16 15 13 13 13 13 13 13 13 14 14 14 14 14 14 13 13 13 12 12 12 12 11 11 11 10 10 10 10
18 17 15 16 17 17 18 17 17 16 17 19 17 19 18 17 16 15 14 13 13 12 12 13 13 13 14 13 13 13 13 13 12 12 12 11 11 10 10 10 10 9 9 9
18 16 15 16 17 17 17 15 16 16 17 17 17 18 20 17 17 16 15 14 13 12 12 12 13 13 13 13 12 12 12 12 12 11 11 11 10 10 9 9 9 8 8 8
17 16 16 17 15 15 15 15 14 15 16 18 18 18 19 18 18 18 16 14 12 11 11 12 12 12 12 12 12 12 11 11 11 11 10 10 9 9 8 8 8 8 7 7
16 16 16 15 15 15 16 17 18 18 18 19 16 16 19 18 18 18 16 14 13 12 11 11 11 11 11 11 11 11 11 11 10 10 9 9 8 8 8 7 7 7 7 7
17 17 16 15 17 17 16 17 18 19 19 19 15 17 19 16 15 15 15 14 12 12 11 11 11 11 11 11 11 11 10 10 10 9 9 8 8 7 7 7 6 6 6 6
18 17 14 14 15 17 16 17 17 18 16 17 19 18 18 14 14 13 14 13 12 12 11 11 11 11 11 11 11 10 10 9 9 8 8 7 7 6 6 6 6 6 6 6
18 17 15 14 14 13 15 16 16 17 17 18 18 18 19 16 15 14 14 13 13 11 10 10 10 10 10 10 10 10 9 9 8 8 7 7 6 6 6 6 6 5 5 5
17 17 15 14 15 16 14 15 16 17 17 17 18 19 18 18 17 15 15 14 13 11 10 10 10 10 10 10 9 9 8 8 7 7 6 6 6 6 5 5 5 5 5 5
16 17 17 15 14 14 16 16 16 17 17 16 17 18 17 16 16 15 14 13 12 10 10 10 10 9 9 9 9 8 8 7 7 6 6 5 5 5 5 5 5 5 4 4
15 17 16 15 14 13 14 14 15 16 16 16 16 18 15 14 14 13 13 12 10 9 9 9 9 9 9 9 8 7 7 6 6 5 5 5 5 5 5 4 4 4 4 4
15 16 17 18 18 16 14 14 13 15 16 16 16 18 17 15 14 13 12 11 10 9 9 8 8 8 8 8 7 7 6 6 5 5 5 5 4 4 4 4 4 4 3 3
14 16 16 16 14 15 15 15 13 14 16 17 17 17 18 17 16 14 12 10 9 8 8 8 8 8 8 7 7 6 5 5 5 5 4 4 4 4 4 4 3 3 3 2
14 15 14 14 12 13 13 14 14 14 15 16 16 16 17 15 13 12 11 9 8 8 8 8 8 7 7 6 6 5 5 4 4 4 4 4 4 3 3 3 3 2 2 2
13 14 14 15 12 12 14 15 14 14 14 15 15 16 14 12 11 11 10 9 8 8 8 8 7 7 6 6 5 5 4 4 4 4 4 3 3 3 3 2 2 1 1 0
13 14 14 14 12 12 17 13 13 14 14 14 13 13 12 11 9 9 9 9 8 8 8 7 7 6 6 5 5 4 4 4 3 3 3 3 3 2 2 1 1 0 -1 -1
12 13 13 12 13 14 15 13 12 12 13 13 12 12 10 8 9 8 8 8 8 7 7 6 6 5 5 4 4 4 4 3 3 3 3 2 2 1 1 0 -0 -1 -2 -2
9 12 13 11 11 12 15 12 10 12 13 12 11 10 9 9 11 11 8 8 7 7 6 6 5 5 4 4 3 3 3 3 2 2 2 2 1 0 -0 -1 -1 -2 -2 -3
9 10 12 12 12 14 14 10 10 12 14 10 9 9 8 9 10 8 8 7 6 6 5 5 5 4 4 3 3 3 3 2 2 2 1 1 0 -0 -1 -1 -2 -3 -3 -4
11 11 11 11 11 12 11 10 12 13 10 9 8 8 8 8 8 7 6 6 5 5 5 4 4 4 4 3 3 2 2 2 1 1 0 0 -0 -1 -1 -2 -3 -3 -4 -4
11 12 12 12 13 11 9 10 10 9 9 8 8 8 8 8 7 6 6 5 5 4 4 4 4 4 3 3 2 2 2 1 0 -0 -0 -1 -1 -2 -2 -3 -4 -4 -5 -5
9 8 10 10 10 9 8 8 9 9 8 9 9 8 8 7 6 5 5 4 4 4 4 3 3 3 3 3 2 2 1 0 -0 -1 -1 -2 -2 -2 -3 -4 -5 -5 -6 -6
11 8 9 10 10 8 8 8 8 8 8 8 8 7 7 6 5 5 4 4 4 4 3 3 3 2 2 2 2 1 1 -0 -1 -2 -2 -2 -3 -3 -4 -4 -5 -6 -6 -7
8 8 9 11 10 9 9 8 8 8 7 7 7 6 6 5 5 4 4 4 3 3 3 3 2 2 2 1 1 1 -0 -1 -2 -2 -3 -3 -4 -4 -5 -5 -6 -6 -6 -7
Wind_Speed
2 5 8 7 8 5 3 6 7 5 1 4 7 7 5 1 5 8 8 8 9 10 10 11 12 12 12 11 9 8 6 5 5 4 4 4 5 6 6 9 11 13 13 13
4 9 7 3 5 6 7 7 8 5 1 4 6 7 2 4 6 7 8 9 10 11 11 12 12 13 13 12 11 9 7 6 4 3 2 1 2 3 4 6 8 10 11 12
11 2 4 6 6 7 8 9 8 5 2 3 4 4 6 6 6 6 6 7 9 10 12 12 12 13 12 12 10 8 8 6 4 3 2 1 1 2 2 3 4 6 8 10
8 4 5 7 8 8 7 6 6 4 5 4 3 4 8 11 10 9 9 9 10 10 11 11 12 12 11 10 9 9 8 7 5 3 1 1 1 2 3 4 4 5 5 7
7 5 6 8 7 9 3 3 3 3 5 6 5 6 6 13 15 15 12 11 10 10 10 11 10 10 9 8 8 8 8 7 5 3 1 1 2 3 4 4 5 5 4 5
6 3 4 3 2 4 7 5 3 2 4 6 5 7 6 12 19 19 16 13 12 11 10 10 9 9 8 7 6 6 7 6 5 3 2 2 3 4 5 5 5 5 4 4
7 6 5 4 5 5 6 5 4 4 5 4 3 5 6 7 11 17 18 16 14 12 11 11 10 8 7 6 6 5 5 5 4 3 3 3 3 4 5 6 6 6 6 6
8 6 8 7 8 8 8 6 5 4 3 1 4 6 2 4 4 8 14 16 15 13 11 10 9 7 6 5 5 4 4 4 4 3 3 3 3 4 4 5 6 7 7 7
8 4 3 2 1 5 6 6 2 2 1 5 5 5 4 4 5 8 14 16 16 14 12 10 8 7 6 5 4 4 3 3 3 3 3 4 4 5 6 7 7 7 8 8
6 4 4 3 4 3 1 5 4 4 4 5 5 5 4 8 9 11 16 18 16 13 11 10 8 7 5 4 4 3 3 3 3 3 4 4 5 6 7 8 9 9 11 10
7 6 5 4 8 8 6 5 4 3 3 4 5 3 1 4 8 13 16 17 16 14 12 10 8 6 5 4 3 3 2 2 3 4 5 6 6 7 8 8 10 10 11 12
7 5 5 4 1 2 6 6 8 6 6 4 5 5 3 3 5 10 13 13 12 12 11 10 9 7 5 4 3 2 1 2 3 4 6 7 8 8 9 10 11 12 13 13
8 7 5 4 4 4 5 5 7 4 4 6 7 7 3 2 5 8 11 12 11 11 11 9 8 6 5 3 2 1 1 2 4 5 7 8 9 10 11 12 13 13 14 15
5 6 8 6 2 7 6 8 10 10 8 9 12 15 7 6 7 9 10 11 12 12 11 9 7 5 4 2 1 1 2 3 5 7 8 10 10 11 12 13 14 14 15 15
5 6 6 4 1 4 7 9 13 15 15 14 16 18 16 11 10 10 11 11 12 11 10 8 7 5 3 2 2 2 4 5 6 8 9 10 11 12 13 13 14 15 15 16
5 5 4 4 2 5 7 13 16 17 18 20 22 22 13 6 6 8 11 12 12 11 10 8 6 4 3 2 3 4 5 6 7 9 11 11 12 12 13 14 15 16 16 17
7 7 6 5 2 3 10 14 17 12 13 13 17 14 4 5 6 8 10 11 12 10 9 7 5 4 3 3 4 6 7 8 9 11 12 12 12 13 14 15 16 17 18 18
8 7 4 3 4 9 6 2 5 11 14 15 13 7 4 4 4 4 7 10 10 8 7 5 3 3 3 3 5 6 8 9 10 12 13 13 13 14 15 16 17 18 17 18
5 7 5 5 7 10 8 5 6 8 9 10 13 10 6 7 5 4 4 6 6 6 5 3 2 3 3 4 6 7 9 10 12 13 14 14 14 15 16 17 19 18 18 18
2 5 6 6 6 8 5 4 4 3 7 5 8 10 11 10 8 6 6 6 6 5 3 2 2 3 5 6 6 9 11 12 13 14 15 15 16 16 18 19 19 18 18 18
6 6 11 12 11 10 2 6 8 6 4 4 8 11 13 10 3 7 8 6 5 4 3 3 3 4 6 6 7 10 12 13 14 14 15 16 16 17 18 18 17 18 18 19
10 10 10 9 10 10 7 9 9 3 2 5 8 10 10 7 7 7 6 5 4 4 3 3 4 6 7 7 8 11 14 14 14 15 16 17 18 16 15 17 18 18 18 19
10 8 7 10 7 1 7 6 2 1 4 6 8 8 9 7 6 6 5 5 4 3 3 3 5 8 9 9 9 13 15 15 15 16 18 18 18 17 16 17 18 17 16 15
7 3 5 6 7 5 6 6 4 4 5 6 7 8 8 7 6 6 5 4 3 3 4 4 6 9 11 11 12 14 15 15 16 17 18 17 17 17 16 14 14 14 14 15
6 8 6 7 5 3 6 8 6 6 6 7 7 6 7 7 6 5 4 4 3 4 5 6 8 10 13 14 15 15 16 16 17 18 17 17 15 16 16 15 14 15 15 16
7 8 8 7 5 5 3 4 8 9 8 9 8 6 5 5 5 4 4 3 4 5 6 8 10 12 14 15 16 17 16 16 17 16 16 14 14 14 14 15 16 16 18 24
Wind_Direction
170 224 237 238 229 257 241 246 259 269 296 272 263 270 281 186 160 143 126 109 93 79 71 66 68 73 79 82 88 97 114 134 153 165 189 216 235 243 246 249 254 254 253 252
214 245 259 233 194 210 227 247 261 263 208 264 278 276 234 165 156 144 133 121 112 104 89 77 75 73 75 77 81 88 97 116 141 155 173 216 264 272 274 267 263 260 257 255
241 259 140 167 181 206 227 241 257 264 250 217 280 230 175 160 149 141 138 131 122 112 103 92 84 80 77 73 74 80 86 99 115 139 153 179 245 260 262 270 277 275 269 263
244 228 189 215 224 221 246 235 237 237 261 251 260 252 184 176 174 170 160 150 136 125 113 104 97 88 81 77 78 81 84 87 96 126 151 191 318 337 343 331 314 305 287 275
224 196 196 218 230 207 209 112 173 224 251 267 225 243 194 181 190 185 174 162 150 138 126 116 107 100 92 86 83 84 85 81 82 90 86 337 328 330 327 322 315 315 305 288
243 200 218 211 99 163 138 128 117 178 227 248 214 224 215 194 202 187 178 173 164 153 141 130 122 116 106 97 90 88 86 79 73 72 64 19 348 332 327 327 324 321 313 302
226 220 199 166 144 148 183 215 237 225 219 234 153 232 249 187 197 191 183 178 172 165 158 150 143 134 121 108 96 92 89 79 68 59 43 20 352 334 328 327 323 318 313 308
213 212 191 193 209 193 197 225 249 270 266 270 197 240 239 139 170 196 188 179 175 174 169 162 154 143 130 115 103 94 85 74 55 38 23 8 351 331 326 321 314 309 306 305
214 196 107 156 178 187 176 208 268 276 289 273 248 259 251 169 195 192 187 182 182 180 176 170 161 153 140 124 105 88 78 65 43 20 358 347 339 328 320 314 307 303 300 301
211 182 148 136 133 48 271 155 165 213 249 259 259 253 238 193 196 188 187 187 184 180 178 174 167 157 144 127 111 92 72 53 25 0 351 330 324 321 314 307 305 303 302 300
203 193 157 180 208 197 163 180 202 209 256 261 271 258 189 202 190 187 188 187 184 181 179 172 164 153 143 135 123 102 73 37 8 350 337 326 322 317 310 305 304 303 301 299
188 201 190 183 93 310 221 210 196 221 226 232 268 274 109 211 202 193 187 184 181 175 170 164 159 155 151 142 127 106 57 8 351 338 327 321 316 312 308 306 305 304 301 299
161 186 179 176 185 186 214 208 211 225 240 226 243 259 116 188 200 198 192 182 173 166 162 161 161 162 157 150 145 133 343 335 329 325 319 315 313 311 308 307 305 303 300 298
174 201 225 239 185 171 195 201 199 204 228 238 239 259 243 220 211 200 192 182 173 168 166 166 167 166 163 170 197 272 305 315 318 315 312 310 310 309 306 304 302 301 299 297
195 224 229 249 167 186 214 211 201 214 234 249 260 264 268 259 239 221 196 180 174 172 172 172 174 175 180 200 242 281 297 305 310 308 306 305 305 304 302 301 300 299 298 295
195 214 196 219 193 225 248 241 228 231 242 249 262 270 277 269 241 213 193 183 182 180 179 177 178 186 205 235 269 285 294 301 303 301 301 302 301 301 301 301 301 300 298 297
181 177 195 237 174 246 256 244 230 226 227 236 251 264 241 215 216 207 194 187 186 182 179 181 188 201 225 252 275 287 295 299 297 296 298 299 299 299 300 301 300 299 299 298
178 181 209 203 181 236 252 135 219 230 244 236 245 247 204 199 164 175 185 184 180 175 175 180 191 212 234 258 274 285 290 292 293 295 297 299 299 298 299 300 300 300 301 299
201 180 181 193 235 262 266 220 195 214 257 231 231 227 181 147 146 159 169 176 173 167 168 176 200 228 249 267 280 287 290 293 294 296 299 301 300 298 299 299 300 302 302 300
152 201 200 193 222 246 248 138 155 181 264 218 203 189 167 164 188 179 154 154 152 150 158 184 216 243 263 278 286 287 292 296 297 299 300 301 300 298 298 299 301 301 300 299
166 191 213 221 235 257 236 141 158 212 284 150 180 173 170 182 168 124 138 145 152 161 179 208 241 261 275 286 287 286 292 294 299 300 299 298 298 298 299 300 299 300 300 299
181 184 200 205 222 244 158 160 199 244 81 169 173 171 170 153 125 133 146 152 162 176 200 235 263 278 285 286 285 287 292 298 301 300 299 299 300 300 299 299 300 301 302 302
209 204 197 201 216 35 169 200 229 165 185 178 171 168 162 155 160 159 163 170 181 205 234 259 275 286 290 289 286 289 296 302 303 301 300 301 302 300 299 299 301 302 302 301
212 198 199 228 245 230 221 230 227 205 190 166 159 155 158 161 162 167 173 186 206 234 258 272 280 286 293 299 298 295 299 302 301 301 302 303 302 302 301 300 298 298 300 300
184 174 203 235 248 240 230 221 203 172 153 140 133 140 152 153 162 174 186 207 235 260 272 276 281 287 293 299 300 300 303 305 303 302 303 303 302 301 302 301 297 296 292 291
183 186 195 231 211 204 204 185 177 165 161 154 143 139 146 159 167 180 206 235 259 273 280 284 287 291 296 300 301 302 304 305 303 302 303 303 303 302 301 302 301 291 288 293
Height
1549 1548 1543 1542 1543 1544 1544 1543 1542 1540 1543 1544 1540 1538 1538 1540 1541 1541 1542 1542 1541 1539 1538 1537 1536 1536 1536 1536 1536 1537 1537 1538 1539 1539 1540 1541 1542 1542 1542 1542 1541 1541 1540 1539
1546 1543 1541 1543 1545 1546 1545 1544 1541 1540 1544 1543 1539 1537 1537 1539 1540 1541 1542 1542 1542 1542 1540 1539 1539 1539 1538 1538 1538 1539 1539 1539 1540 1540 1541 1541 1541 1540 1540 1539 1539 1538 1537 1536
1541 1540 1543 1544 1545 1545 1543 1542 1539 1540 1541 1543 1542 1534 1536 1538 1541 1542 1543 1543 1543 1543 1542 1541 1541 1541 1541 1540 1541 1541 1541 1541 1541 1541 1541 1541 1540 1540 1539 1538 1536 1535 1534 1532
1539 1540 1543 1542 1541 1540 1539 1539 1541 1542 1540 1534 1539 1530 1531 1533 1537 1540 1542 1543 1543 1543 1542 1542 1542 1542 1542 1542 1543 1543 1543 1543 1542 1542 1541 1541 1540 1539 1538 1536 1534 1533 1531 1529
1535 1539 1539 1539 1537 1538 1537 1541 1542 1542 1540 1537 1536 1532 1522 1530 1532 1535 1539 1541 1542 1543 1542 1542 1543 1543 1543 1544 1544 1544 1544 1543 1543 1542 1541 1540 1539 1537 1536 1534 1532 1530 1528 1526
1533 1536 1536 1535 1538 1539 1541 1542 1545 1543 1539 1536 1529 1530 1519 1522 1522 1527 1535 1539 1541 1542 1542 1542 1543 1543 1544 1544 1544 1544 1544 1543 1542 1541 1540 1538 1537 1535 1533 1531 1529 1527 1525 1522
1533 1533 1533 1535 1536 1540 1540 1537 1536 1534 1532 1526 1533 1532 1516 1514 1518 1522 1529 1535 1538 1540 1541 1542 1542 1543 1543 1544 1544 1543 1543 1542 1541 1540 1538 1536 1534 1532 1530 1528 1526 1523 1521 1519
1528 1527 1529 1531 1530 1531 1534 1533 1532 1532 1526 1523 1533 1526 1512 1518 1521 1523 1527 1532 1535 1538 1539 1540 1541 1542 1542 1543 1543 1542 1541 1540 1539 1537 1536 1534 1532 1530 1527 1525 1523 1520 1517 1514
1521 1524 1531 1531 1531 1530 1532 1530 1530 1529 1534 1531 1518 1515 1512 1519 1520 1523 1525 1529 1532 1535 1537 1538 1539 1540 1541 1541 1541 1540 1539 1538 1536 1535 1533 1531 1529 1527 1524 1522 1519 1516 1513 1509
1516 1522 1529 1532 1532 1534 1531 1529 1533 1530 1531 1527 1518 1514 1507 1511 1514 1518 1521 1524 1528 1531 1534 1535 1537 1538 1538 1539 1538 1538 1537 1535 1534 1532 1530 1528 1526 1523 1520 1518 1515 1511 1508 1504
1516 1518 1529 1530 1529 1526 1533 1533 1528 1527 1528 1526 1521 1510 1504 1505 1508 1512 1516 1520 1524 1528 1530 1532 1534 1535 1536 1536 1536 1535 1534 1532 1531 1529 1527 1525 1522 1519 1516 1513 1510 1506 1502 1497
1515 1514 1519 1524 1528 1528 1525 1523 1524 1526 1525 1527 1521 1512 1506 1507 1509 1511 1514 1518 1522 1525 1527 1529 1531 1533 1533 1534 1533 1532 1531 1529 1528 1526 1524 1521 1518 1515 1512 1508 1504 1500 1495 1491
1514 1514 1519 1523 1528 1530 1527 1526 1525 1523 1522 1522 1521 1509 1508 1508 1509 1511 1514 1516 1519 1522 1524 1527 1529 1530 1531 1531 1530 1529 1528 1526 1524 1522 1520 1517 1514 1511 1507 1503 1498 1493 1488 1483
1511 1509 1509 1510 1508 1513 1520 1523 1524 1522 1519 1515 1513 1502 1503 1506 1507 1510 1512 1514 1517 1519 1522 1524 1526 1527 1528 1527 1527 1526 1524 1523 1521 1518 1516 1513 1509 1505 1501 1496 1491 1486 1481 1475
1510 1507 1507 1509 1512 1513 1512 1514 1519 1517 1509 1508 1499 1498 1496 1499 1504 1506 1509 1512 1515 1517 1520 1522 1523 1524 1524 1524 1523 1522 1521 1519 1517 1514 1511 1508 1504 1500 1495 1490 1484 1479 1473 1467
1508 1508 1510 1512 1516 1515 1515 1510 1510 1510 1506 1502 1499 1496 1494 1499 1502 1504 1506 1509 1511 1514 1517 1519 1520 1521 1521 1520 1520 1518 1517 1515 1512 1509 1506 1502 1498 1493 1488 1482 1477 1471 1465 1458
1506 1508 1509 1508 1517 1515 1508 1497 1499 1501 1498 1497 1496 1492 1495 1498 1500 1501 1503 1506 1509 1512 1514 1516 1517 1517 1517 1517 1516 1514 1512 1510 1507 1504 1500 1496 1491 1486 1481 1475 1469 1462 1456 1449
1504 1504 1505 1508 1515 1516 1490 1493 1494 1494 1492 1492 1492 1493 1496 1497 1499 1500 1502 1505 1507 1510 1512 1513 1514 1514 1514 1513 1512 1510 1508 1505 1502 1499 1494 1490 1484 1478 1473 1467 1461 1454 1448 1441
1503 1502 1504 1509 1505 1496 1489 1491 1493 1493 1488 1487 1489 1491 1496 1497 1499 1501 1501 1504 1506 1508 1510 1510 1511 1511 1510 1509 1508 1506 1503 1500 1497 1492 1488 1483 1477 1471 1465 1459 1452 1446 1439 1432
1505 1503 1502 1508 1507 1500 1483 1489 1490 1492 1487 1484 1486 1489 1493 1496 1497 1498 1500 1502 1504 1506 1507 1507 1507 1507 1506 1505 1503 1501 1498 1495 1491 1486 1481 1476 1470 1464 1457 1451 1444 1437 1430 1423
1503 1502 1499 1498 1498 1485 1482 1488 1490 1491 1481 1484 1485 1487 1491 1493 1494 1497 1499 1501 1502 1503 1504 1504 1504 1504 1503 1501 1499 1496 1492 1488 1484 1479 1473 1468 1462 1456 1449 1442 1436 1429 1422 1414
1489 1492 1493 1492 1494 1488 1484 1486 1485 1480 1482 1482 1484 1486 1490 1492 1494 1495 1497 1499 1500 1501 1501 1501 1501 1500 1499 1496 1493 1490 1486 1482 1477 1471 1465 1460 1454 1448 1441 1434 1428 1421 1414 1406
1481 1478 1478 1480 1478 1479 1480 1480 1480 1481 1481 1482 1483 1486 1488 1490 1492 1494 1495 1496 1497 1498 1498 1498 1497 1496 1494 1491 1488 1483 1479 1474 1469 1463 1457 1452 1446 1440 1434 1427 1420 1413 1407 1400
1478 1480 1479 1479 1475 1477 1478 1478 1478 1479 1480 1481 1482 1485 1487 1489 1490 1492 1493 1494 1495 1495 1495 1494 1493 1490 1488 1486 1482 1477 1472 1466 1461 1455 1449 1443 1437 1431 1425 1419 1413 1406 1400 1393
1469 1476 1476 1474 1473 1475 1474 1474 1475 1476 1478 1480 1481 1483 1485 1487 1488 1489 1490 1491 1492 1492 1491 1489 1488 1485 1482 1478 1474 1470 1465 1459 1453 1447 1441 1435 1429 1423 1417 1411 1405 1399 1393 1388
1468 1469 1470 1467 1468 1470 1471 1471 1472 1474 1476 1478 1480 1482 1483 1485 1486 1487 1488 1488 1488 1488 1486 1484 1482 1479 1475 1471 1467 1462 1457 1451 1445 1438 1433 1427 1421 1415 1409 1402 1395 1390 1385 1379